When you browse on this site, cookies collect data to enhance your experience and personalize the content and advertising you see.
Visit our Privacy Policy to learn more. By continuing to use the site, you agree to this use of cookies and data.
  • In Hungary
  • List of Countries
  • For 7 days
  • Water Temperature
  • Weather Map
  • News
  • Weather Widgets
  • user-avatar
    Login

    Hourly Weather Soloveckiy

    Today, 20 October, Sunday

    Time Temperature Precipitation Wind Pressure Humidity
    00:00 +10°C° 0 mm 2 mps 749 mmHg 85%
    01:00 +10°C° 0 mm 3 mps 749 mmHg 86%
    02:00 +10°C° 0 mm 2 mps 749 mmHg 87%
    03:00 +10°C° 0 mm 2 mps 749 mmHg 88%
    04:00 +10°C° 0 mm 2 mps 749 mmHg 89%
    05:00 +10°C° 0 mm 2 mps 749 mmHg 90%
    06:00 +10°C° 0 mm 2 mps 749 mmHg 89%
    07:00 +12°C° 0 mm 2 mps 749 mmHg 88%
    08:00 +11°C° 0 mm 3 mps 749 mmHg 87%
    09:00 +13°C° 0 mm 3 mps 749 mmHg 82%
    10:00 +14°C° 0 mm 3 mps 749 mmHg 78%
    11:00 +15°C° 0 mm 4 mps 750 mmHg 73%
    12:00 +17°C° 0 mm 4 mps 749 mmHg 70%
    13:00 +17°C° 0 mm 4 mps 749 mmHg 67%
    14:00 +18°C° 0 mm 4 mps 749 mmHg 63%
    15:00 +17°C° 0 mm 3 mps 749 mmHg 69%
    16:00 +14°C° 0 mm 3 mps 749 mmHg 75%
    17:00 +13°C° 0 mm 3 mps 749 mmHg 81%
    18:00 +12°C° 0 mm 3 mps 749 mmHg 83%
    19:00 +12°C° 0 mm 3 mps 749 mmHg 84%
    20:00 +12°C° 0 mm 3 mps 749 mmHg 86%
    21:00 +12°C° 0 mm 3 mps 750 mmHg 86%
    22:00 +11°C° 0 mm 3 mps 750 mmHg 85%
    23:00 +11°C° 0 mm 3 mps 750 mmHg 85%

    Tomorrow, 21 October, Monday

    Time Temperature Precipitation Wind Pressure Humidity
    00:00 +11°C° 0 mm 3 mps 750 mmHg 86%
    01:00 +10°C° 0 mm 3 mps 750 mmHg 86%
    02:00 +10°C° 0 mm 3 mps 750 mmHg 86%
    03:00 +10°C° 0 mm 3 mps 749 mmHg 86%
    04:00 +10°C° 0 mm 3 mps 749 mmHg 86%
    05:00 +9°C° 0 mm 3 mps 749 mmHg 85%
    06:00 +10°C° 0 mm 4 mps 749 mmHg 82%
    07:00 +10°C° 0 mm 4 mps 749 mmHg 78%
    08:00 +11°C° 0 mm 4 mps 749 mmHg 75%
    09:00 +13°C° 0 mm 4 mps 749 mmHg 70%
    10:00 +14°C° 0 mm 5 mps 749 mmHg 66%
    11:00 +15°C° 0 mm 5 mps 749 mmHg 62%
    12:00 +16°C° 0 mm 5 mps 749 mmHg 62%
    13:00 +16°C° 0 mm 5 mps 748 mmHg 63%
    14:00 +16°C° 0 mm 5 mps 748 mmHg 63%
    15:00 +15°C° 0 mm 5 mps 748 mmHg 68%
    16:00 +14°C° 0 mm 4 mps 748 mmHg 72%
    17:00 +13°C° 0 mm 4 mps 748 mmHg 76%
    18:00 +13°C° 0 mm 4 mps 748 mmHg 79%
    19:00 +12°C° 0 mm 3 mps 748 mmHg 82%
    20:00 +12°C° 0 mm 3 mps 748 mmHg 85%
    21:00 +12°C° 0 mm 3 mps 748 mmHg 87%
    22:00 +11°C° 0 mm 3 mps 748 mmHg 89%
    23:00 +12°C° 0 mm 2 mps 748 mmHg 92%

    Day after tomorrow, 22 October, Tuesday

    Time Temperature Precipitation Wind Pressure Humidity
    00:00 +12°C° 0 mm 2 mps 748 mmHg 93%
    01:00 +12°C° 0 mm 2 mps 749 mmHg 94%
    02:00 +12°C° 0 mm 1 mps 749 mmHg 95%
    03:00 +12°C° 0 mm 2 mps 749 mmHg 95%
    04:00 +12°C° 0 mm 2 mps 749 mmHg 96%
    05:00 +10°C° 0 mm 2 mps 749 mmHg 96%
    06:00 +10°C° 0 mm 2 mps 750 mmHg 93%
    07:00 +10°C° 0 mm 2 mps 750 mmHg 90%
    08:00 +10°C° 0 mm 2 mps 750 mmHg 87%
    09:00 +12°C° 0 mm 2 mps 751 mmHg 80%
    10:00 +13°C° 0 mm 2 mps 751 mmHg 73%
    11:00 +15°C° 0 mm 2 mps 751 mmHg 66%
    12:00 +15°C° 0 mm 2 mps 751 mmHg 63%
    13:00 +15°C° 0 mm 1 mps 751 mmHg 59%
    14:00 +16°C° 0 mm 1 mps 751 mmHg 56%
    15:00 +14°C° 0 mm 1 mps 751 mmHg 61%
    16:00 +13°C° 0 mm 1 mps 751 mmHg 66%
    17:00 +12°C° 0 mm 1 mps 751 mmHg 71%
    18:00 +11°C° 0 mm 1 mps 751 mmHg 72%
    19:00 +11°C° 0 mm 1 mps 751 mmHg 73%
    20:00 +10°C° 0 mm 0 mps 751 mmHg 75%
    21:00 +10°C° 0 mm 1 mps 751 mmHg 76%
    22:00 +10°C° 0 mm 1 mps 751 mmHg 77%
    23:00 +9°C° 0 mm 2 mps 751 mmHg 78%

    23 October, Wednesday

    Time Temperature Precipitation Wind Pressure Humidity
    00:00 +9°C° 0 mm 2 mps 751 mmHg 80%
    01:00 +9°C° 0 mm 2 mps 750 mmHg 82%
    02:00 +9°C° 0 mm 3 mps 750 mmHg 84%
    03:00 +9°C° 0 mm 3 mps 750 mmHg 87%
    04:00 +9°C° 0 mm 3 mps 750 mmHg 90%
    05:00 +9°C° 0 mm 3 mps 749 mmHg 94%
    06:00 +9°C° 0 mm 3 mps 749 mmHg 93%
    07:00 +10°C° 0 mm 3 mps 749 mmHg 93%
    08:00 +10°C° 0 mm 3 mps 749 mmHg 93%
    09:00 +12°C° 0 mm 3 mps 749 mmHg 88%
    10:00 +13°C° 0 mm 3 mps 749 mmHg 83%
    11:00 +14°C° 0 mm 3 mps 748 mmHg 79%
    12:00 +15°C° 0 mm 4 mps 748 mmHg 76%
    13:00 +15°C° 0 mm 4 mps 748 mmHg 74%
    14:00 +17°C° 0 mm 4 mps 748 mmHg 72%
    15:00 +15°C° 0 mm 4 mps 747 mmHg 78%
    16:00 +14°C° 0 mm 4 mps 747 mmHg 83%
    17:00 +13°C° 0 mm 3 mps 746 mmHg 88%
    18:00 +12°C° 0 mm 3 mps 747 mmHg 89%
    19:00 +12°C° 0 mm 3 mps 747 mmHg 90%
    20:00 +12°C° 0 mm 3 mps 747 mmHg 91%
    21:00 +11°C° 0 mm 3 mps 746 mmHg 91%
    22:00 +11°C° 0 mm 3 mps 746 mmHg 91%
    23:00 +11°C° 0 mm 3 mps 746 mmHg 91%

    24 October, Thursday

    Time Temperature Precipitation Wind Pressure Humidity
    00:00 +12°C° 0 mm 2 mps 746 mmHg 92%
    01:00 +12°C° 0 mm 2 mps 746 mmHg 92%
    02:00 +10°C° 0 mm 2 mps 746 mmHg 92%
    03:00 +10°C° 0 mm 2 mps 746 mmHg 92%
    04:00 +11°C° 0 mm 1 mps 746 mmHg 92%
    05:00 +11°C° 0 mm 1 mps 746 mmHg 92%
    06:00 +11°C° 0 mm 1 mps 746 mmHg 91%
    07:00 +12°C° 0 mm 1 mps 746 mmHg 89%
    08:00 +12°C° 0 mm 1 mps 746 mmHg 88%
    09:00 +13°C° 0 mm 1 mps 746 mmHg 84%
    10:00 +14°C° 0 mm 1 mps 746 mmHg 81%
    11:00 +15°C° 0 mm 1 mps 746 mmHg 77%
    12:00 +15°C° 0 mm 1 mps 746 mmHg 76%
    13:00 +15°C° 0 mm 1 mps 746 mmHg 74%
    14:00 +15°C° 0 mm 1 mps 746 mmHg 73%
    15:00 +14°C° 0 mm 1 mps 746 mmHg 78%
    16:00 +13°C° 0 mm 1 mps 746 mmHg 83%
    17:00 +12°C° 0 mm 1 mps 746 mmHg 88%
    18:00 +12°C° 0 mm 1 mps 747 mmHg 89%
    19:00 +12°C° 0 mm 1 mps 747 mmHg 90%
    20:00 +12°C° 0 mm 1 mps 747 mmHg 91%
    21:00 +11°C° 0 mm 1 mps 747 mmHg 91%
    22:00 +11°C° 0 mm 1 mps 747 mmHg 91%
    23:00 +11°C° 0 mm 1 mps 747 mmHg 92%

    25 October, Friday

    Time Temperature Precipitation Wind Pressure Humidity
    00:00 +11°C° 0 mm 1 mps 747 mmHg 92%
    01:00 +9°C° 0 mm 2 mps 747 mmHg 92%
    02:00 +9°C° 0 mm 2 mps 747 mmHg 93%
    03:00 +9°C° 0 mm 2 mps 748 mmHg 93%
    04:00 +10°C° 0 mm 1 mps 748 mmHg 93%
    05:00 +9°C° 0 mm 1 mps 748 mmHg 94%
    06:00 +10°C° 0 mm 1 mps 748 mmHg 93%
    07:00 +9°C° 0 mm 2 mps 748 mmHg 91%
    08:00 +10°C° 0 mm 2 mps 748 mmHg 90%
    09:00 +12°C° 0 mm 2 mps 748 mmHg 84%
    10:00 +13°C° 0 mm 3 mps 748 mmHg 78%
    11:00 +16°C° 0 mm 3 mps 749 mmHg 72%
    12:00 +16°C° 0 mm 3 mps 748 mmHg 69%
    13:00 +17°C° 0 mm 3 mps 748 mmHg 66%
    14:00 +17°C° 0 mm 3 mps 748 mmHg 63%
    15:00 +16°C° 0 mm 3 mps 748 mmHg 68%
    16:00 +13°C° 0 mm 3 mps 748 mmHg 72%
    17:00 +13°C° 0 mm 2 mps 748 mmHg 77%
    18:00 +12°C° 0 mm 2 mps 748 mmHg 78%
    19:00 +12°C° 0 mm 2 mps 748 mmHg 79%
    20:00 +10°C° 0 mm 3 mps 748 mmHg 79%
    21:00 +10°C° 0 mm 3 mps 748 mmHg 80%
    22:00 +10°C° 0 mm 2 mps 748 mmHg 81%
    23:00 +9°C° 0 mm 2 mps 748 mmHg 81%
    Show more